FW7834 Weather Reports


Display with metric or nautical units.
time (UTC)temp
F
wind
direction
speed
MPH
gust
MPH
rain 1hr
in
rain 24hr
in
rain mn
in
humidity
%
barometer
mb
20260505023057 62 239 2.0 2.0 0.00 0.00 0.00 71 1010.3
20260505022554 62 241 4.0 6.0 0.00 0.00 0.00 70 1010.3
20260505022051 62 239 5.0 6.0 0.00 0.00 0.00 70 1010.4
20260505021547 63 257 4.0 5.0 0.00 0.00 0.00 69 1010.3
20260505021044 64 236 4.0 5.0 0.00 0.00 0.00 68 1010.3
20260505020544 64 224 4.0 5.0 0.00 0.00 0.00 67 1010.1
20260505020041 66 230 3.0 5.0 0.00 0.00 0.00 66 1010.4
20260505015538 67 260 5.0 7.0 0.00 0.00 0.00 63 1009.9
20260505015035 68 243 3.0 3.0 0.00 0.00 0.00 63 1010.3
20260505014532 68 266 5.0 6.0 0.00 0.00 0.00 62 1010.2
20260505014029 68 225 4.0 6.0 0.00 0.00 0.00 62 1010.3
20260505013526 70 261 7.0 8.0 0.00 0.00 0.00 61 1009.9
20260505013024 70 259 4.0 5.0 0.00 0.00 0.00 59 1010.1
20260505012522 70 247 4.0 5.0 0.00 0.00 0.00 58 1010.3
20260505012019 71 257 5.0 7.0 0.00 0.00 0.00 57 1010.0
20260505011514 72 229 5.0 7.0 0.00 0.00 0.00 54 1010.1
20260505011011 73 241 5.0 6.0 0.00 0.00 0.00 51 1010.2
20260505010506 73 229 3.0 5.0 0.00 0.00 0.00 50 1010.4
20260505010003 73 243 5.0 8.0 0.00 0.00 0.00 49 1010.3
20260505005500 72 256 4.0 6.0 0.00 0.00 0.00 49 1010.2
20260505004957 74 256 5.0 7.0 0.00 0.00 0.00 47 1010.1
20260505004454 73 238 2.0 3.0 0.00 0.00 0.00 49 1010.2
20260505003950 73 255 5.0 6.0 0.00 0.00 0.00 48 1010.1
20260505003448 73 255 3.0 5.0 0.00 0.00 0.00 50 1010.3
20260505002944 73 244 5.0 6.0 0.00 0.00 0.00 50 1010.3
20260505002440 73 242 4.0 5.0 0.00 0.00 0.00 49 1010.4
20260505001939 74 253 3.0 3.0 0.00 0.00 0.00 50 1010.4
20260505001436 74 251 4.0 6.0 0.00 0.00 0.00 49 1010.3
20260505000933 73 253 4.0 5.0 0.00 0.00 0.00 51 1010.4
20260505000431 73 254 3.0 3.0 0.00 0.00 0.00 52 1010.2
20260504235927 73 245 3.0 5.0 0.00 0.00 0.00 49 1010.3
20260504235425 74 265 4.0 5.0 0.00 0.00 0.00 50 1010.5
20260504234921 74 254 3.0 5.0 0.00 0.00 0.00 50 1010.3
20260504234419 75 244 4.0 6.0 0.00 0.00 0.00 50 1010.3
20260504233915 73 243 5.0 7.0 0.00 0.00 0.00 51 1010.7
20260504233411 75 268 5.0 6.0 0.00 0.00 0.00 50 1010.4
20260504232908 75 258 2.0 2.0 0.00 0.00 0.00 49 1010.6
20260504232405 74 235 6.0 7.0 0.00 0.00 0.00 50 1010.5
20260504231902 74 243 4.0 5.0 0.00 0.00 0.00 51 1010.5
20260504231358 74 268 6.0 7.0 0.00 0.00 0.00 50 1010.4
20260504230854 74 215 3.0 3.0 0.00 0.00 0.00 54 1010.5
20260504230352 74 254 4.0 6.0 0.00 0.00 0.00 53 1010.4
20260504225850 74 245 3.0 3.0 0.00 0.00 0.00 53 1010.7
20260504225347 74 225 3.0 3.0 0.00 0.00 0.00 54 1010.4
20260504224844 74 262 5.0 7.0 0.00 0.00 0.00 53 1010.5
20260504224341 76 256 6.0 7.0 0.00 0.00 0.00 51 1010.6
20260504223837 77 229 4.0 5.0 0.00 0.00 0.00 51 1010.7
20260504223333 76 238 3.0 3.0 0.00 0.00 0.00 52 1010.6
20260504222830 75 252 3.0 3.0 0.00 0.00 0.00 54 1010.7
20260504222327 75 272 4.0 5.0 0.00 0.00 0.00 54 1010.8
20260504221826 75 244 4.0 6.0 0.00 0.00 0.00 55 1010.5
20260504221321 75 216 3.0 5.0 0.00 0.00 0.00 53 1010.9
20260504220819 77 246 4.0 6.0 0.00 0.00 0.00 53 1010.8
20260504220315 78 236 3.0 5.0 0.00 0.00 0.00 50 1010.8
20260504215813 78 243 3.0 3.0 0.00 0.00 0.00 48 1010.7
20260504215309 79 265 2.0 2.0 0.00 0.00 0.00 48 1010.7
20260504214805 79 232 2.0 2.0 0.00 0.00 0.00 47 1010.8
20260504214302 79 269 3.0 5.0 0.00 0.00 0.00 46 1011.0
20260504213758 79 257 3.0 3.0 0.00 0.00 0.00 44 1010.8
20260504213254 80 247 1.0 1.0 0.00 0.00 0.00 47 1011.0
20260504212752 80 228 4.0 6.0 0.00 0.00 0.00 42 1010.9
20260504212248 80 243 2.0 2.0 0.00 0.00 0.00 43 1011.0
20260504211746 80 261 3.0 3.0 0.00 0.00 0.00 42 1011.0
20260504211242 79 254 3.0 5.0 0.00 0.00 0.00 45 1011.1
20260504210739 81 230 1.0 1.0 0.00 0.00 0.00 44 1011.1
20260504210236 80 280 1.0 1.0 0.00 0.00 0.00 46 1011.0
20260504205733 80 241 1.0 1.0 0.00 0.00 0.00 46 1011.3
20260504205231 79 254 1.0 2.0 0.00 0.00 0.00 48 1011.2
20260504204729 78 248 2.0 2.0 0.00 0.00 0.00 45 1011.0
20260504204227 78 244 2.0 2.0 0.00 0.00 0.00 46 1011.1
20260504203726 78 217 0.0 1.0 0.00 0.00 0.00 48 1011.2
20260504203223 77 262 3.0 3.0 0.00 0.00 0.00 46 1011.5
20260504202723 77 225 1.0 1.0 0.00 0.00 0.00 49 1011.3
20260504202221 78 251 3.0 5.0 0.00 0.00 0.00 48 1011.3
20260504201718 78 239 3.0 3.0 0.00 0.00 0.00 46 1011.3
20260504201215 77 285 1.0 1.0 0.00 0.00 0.00 51 1011.4
20260504200712 77 251 1.0 1.0 0.00 0.00 0.00 52 1011.5
20260504200208 76 254 0.0 1.0 0.00 0.00 0.00 49 1011.5
20260504195705 76 232 0.0 1.0 0.00 0.00 0.00 51 1011.5
20260504195201 77 245 2.0 3.0 0.00 0.00 0.00 48 1011.4
20260504194658 76 190 1.0 1.0 0.00 0.00 0.00 51 1011.7
20260504194154 76 174 2.0 2.0 0.00 0.00 0.00 52 1011.5
20260504193651 75 219 1.0 1.0 0.00 0.00 0.00 49 1011.4
20260504193148 76 241 1.0 1.0 0.00 0.00 0.00 47 1011.5
20260504192646 76 246 3.0 5.0 0.00 0.00 0.00 48 1011.4
20260504192144 76 269 1.0 1.0 0.00 0.00 0.00 48 1011.4
20260504191642 76 235 1.0 2.0 0.00 0.00 0.00 49 1011.5
20260504191138 75 132 2.0 2.0 0.00 0.00 0.00 51 1011.3
20260504190634 75 146 1.0 1.0 0.00 0.00 0.00 52 1011.6
20260504190131 75 177 2.0 5.0 0.00 0.00 0.00 50 1011.6
20260504185627 75 233 1.0 1.0 0.00 0.00 0.00 51 1011.4
20260504185124 75 216 2.0 2.0 0.00 0.00 0.00 52 1011.6
20260504184620 75 161 2.0 2.0 0.00 0.00 0.00 50 1011.7
20260504184115 75 174 0.0 0.0 0.00 0.00 0.00 50 1011.4
20260504183613 74 195 2.0 2.0 0.00 0.00 0.00 52 1011.6
20260504183110 74 198 1.0 1.0 0.00 0.00 0.00 53 1011.4
20260504182607 75 124 2.0 2.0 0.00 0.00 0.00 51 1011.7
20260504182105 74 268 1.0 1.0 0.00 0.00 0.00 52 1011.7
20260504181602 74 181 1.0 2.0 0.00 0.00 0.00 51 1011.6
20260504181100 73 105 1.0 1.0 0.00 0.00 0.00 53 1011.7
20260504180558 72 211 1.0 1.0 0.00 0.00 0.00 55 1011.7
20260504180057 72 214 1.0 1.0 0.00 0.00 0.00 53 1011.9
20260504175554 72 198 1.0 1.0 0.00 0.00 0.00 56 1011.9
20260504175050 72 220 1.0 2.0 0.00 0.00 0.00 56 1011.9
20260504174549 70 250 3.0 3.0 0.00 0.00 0.00 55 1011.8
20260504174045 70 254 3.0 3.0 0.00 0.00 0.00 55 1011.9
20260504173542 70 241 3.0 3.0 0.00 0.00 0.00 55 1011.7
20260504173040 70 247 1.0 2.0 0.00 0.00 0.00 57 1011.7
20260504172535 68 238 0.0 1.0 0.00 0.00 0.00 61 1011.7
20260504172032 68 253 3.0 3.0 0.00 0.00 0.00 60 1011.6
20260504171529 69 255 2.0 2.0 0.00 0.00 0.00 63 1011.7
20260504171026 69 244 2.0 2.0 0.00 0.00 0.00 65 1011.8
20260504170522 67 222 1.0 1.0 0.00 0.00 0.00 67 1011.8
20260504160442 63 234 0.0 0.0 0.00 0.00 0.00 71 1011.8
20260504150906 60 168 0.0 0.0 0.00 0.00 0.00 79 1011.7
20260504150403 59 108 1.0 1.0 0.00 0.00 0.00 80 1011.6
20260504141333 57 253 0.0 0.0 0.00 0.00 0.00 82 1011.3
20260504140829 56 251 0.0 0.0 0.00 0.00 0.00 84 1011.4
20260504140325 55 257 0.0 0.0 0.00 0.00 0.00 85 1011.5
20260504130754 48 256 0.0 0.0 0.00 0.00 0.00 97 1011.0
20260504130250 48 256 0.0 0.0 0.00 0.00 0.00 96 1010.9
20260504120214 49 258 0.0 0.0 0.00 0.00 0.00 95 1010.8
20260504110641 50 256 0.0 0.0 0.00 0.00 0.00 93 1010.9
20260504110137 50 257 0.0 0.0 0.00 0.00 0.00 92 1011.0
20260504100603 50 258 0.0 0.0 0.00 0.00 0.00 92 1011.0
20260504081956 53 257 0.0 0.0 0.00 0.00 0.00 85 1011.1
20260504081454 53 256 0.0 0.0 0.00 0.00 0.00 85 1010.9
20260504080949 53 255 0.0 0.0 0.00 0.00 0.00 86 1010.8
20260504080446 53 255 0.0 0.0 0.00 0.00 0.00 86 1010.9
20260504050259 59 250 0.0 0.0 0.00 0.00 0.00 72 1010.7
20260504045757 60 250 0.0 0.0 0.00 0.00 0.00 72 1010.7
20260504045256 60 250 0.0 0.0 0.00 0.00 0.00 71 1010.7
20260504044754 60 252 1.0 1.0 0.00 0.00 0.00 71 1010.4
20260504044252 60 253 1.0 1.0 0.00 0.00 0.00 72 1010.5
20260504043748 59 255 0.0 0.0 0.00 0.00 0.00 73 1010.4
20260504043245 60 255 0.0 0.0 0.00 0.00 0.00 72 1010.6
20260504042743 60 255 0.0 0.0 0.00 0.00 0.00 72 1010.6
20260504042239 60 255 0.0 0.0 0.00 0.00 0.00 72 1010.6
20260504041736 60 255 0.0 0.0 0.00 0.00 0.00 72 1010.7
20260504041232 60 255 0.0 0.0 0.00 0.00 0.00 71 1010.7
20260504040728 60 255 0.0 0.0 0.00 0.00 0.00 72 1010.3
20260504040226 62 255 0.0 0.0 0.00 0.00 0.00 71 1010.5
20260504035721 63 255 0.0 0.0 0.00 0.00 0.00 69 1010.3
20260504035219 63 253 0.0 0.0 0.00 0.00 0.00 69 1010.3
20260504034716 63 253 0.0 0.0 0.00 0.00 0.00 69 1010.4
20260504034213 64 252 0.0 0.0 0.00 0.00 0.00 68 1010.2
20260504033711 64 255 0.0 0.0 0.00 0.00 0.00 68 1010.5
20260504033208 65 255 0.0 0.0 0.00 0.00 0.00 66 1010.3
20260504032705 66 255 0.0 0.0 0.00 0.00 0.00 64 1010.6
20260504032202 66 255 0.0 0.0 0.00 0.00 0.00 62 1010.7
20260504031659 67 255 0.0 0.0 0.00 0.00 0.00 60 1010.2
20260504031155 68 248 1.0 2.0 0.00 0.00 0.00 59 1010.3
20260504030652 68 261 1.0 1.0 0.00 0.00 0.00 59 1010.2
20260504030149 69 248 1.0 1.0 0.00 0.00 0.00 55 1010.3
20260504025646 70 248 2.0 2.0 0.00 0.00 0.00 53 1010.2
20260504025142 70 249 1.0 2.0 0.00 0.00 0.00 52 1010.4
20260504024640 71 249 1.0 1.0 0.00 0.00 0.00 51 1010.3
20260504024136 71 253 2.0 2.0 0.00 0.00 0.00 50 1010.3
20260504023633 73 244 1.0 2.0 0.00 0.00 0.00 49 1010.3